Overview Statistics Trail Chart Weather Telemetry Raw packets
 

This is the latest recevied weather packets stored in our database for station/object HS3UAA-1. If no packets are shown the sender has not sent any weather packets the latest 10 day(s).

<< 62 63 64 65 66 67 68 >>
Time Temp. Humidity Pressure Rain* Wind** Luminosity Snow
1788176412 34.44° C 41% 995 hPa - - 0 W/m² -
1788176090 33.89° C 41% 995 hPa - - 0 W/m² -
1788175768 33.33° C 41% 995 hPa - - 0 W/m² -
1788175445 33.33° C 41% 995 hPa - - 0 W/m² -
1788175123 33.33° C 41% 995 hPa - - 0 W/m² -
1788174810 33.33° C 41% 995 hPa - - 0 W/m² -
1788174479 33.33° C 41% 995 hPa - - 0 W/m² -
1788174157 32.78° C 41% 994 hPa - - 0 W/m² -
1788173835 32.22° C 41% 994 hPa - - 0 W/m² -
1788173513 32.22° C 41% 994 hPa - - 0 W/m² -
1788173191 31.67° C 41% 994 hPa - - 0 W/m² -
1788172869 31.67° C 41% 994 hPa - - 0 W/m² -
1788172547 30.56° C 42% 994 hPa - - 0 W/m² -
1788172225 28.89° C 43% 994 hPa - - 0 W/m² -
1788171903 28.89° C 47% 994 hPa - - 0 W/m² -
1788171581 28.89° C 45% 994 hPa - - 0 W/m² -
1788171259 29.44° C 45% 994 hPa - - 0 W/m² -
1788170937 28.89° C 48% 994 hPa - - 0 W/m² -
1788170615 28.89° C 46% 994 hPa - - 0 W/m² -
1788170293 28.89° C 47% 994 hPa - - 0 W/m² -
1788169971 28.89° C 47% 994 hPa - - 0 W/m² -
1788169649 28.33° C 44% 994 hPa - - 0 W/m² -
1788169327 28.89° C 48% 994 hPa - - 0 W/m² -
1788169005 28.89° C 44% 994 hPa - - 0 W/m² -
1788168683 28.89° C 48% 994 hPa - - 0 W/m² -

* Rain since midnight (hover to see other rain measurements)
** Current wind speed in m/s (hover to see current wind gust speed)